When you browse on this site, cookies collect data to enhance your experience and personalize the content and advertising you see.
Visit our Privacy Policy to learn more. By continuing to use the site, you agree to this use of cookies and data.
  • In Sweden
  • List of Countries
  • For 7 days
  • Water Temperature
  • Satellite Maps
  • Weather Map
  • Weather Widgets
  • user-avatar
    Login

    Hourly Weather Çankırı

    Today, 20 January, Sunday

    Time Temperature Precipitation Wind Pressure Humidity
    00:00 -2°C° 0 mm 0 mps 700 mmHg 85%
    01:00 -2°C° 0 mm 0 mps 699 mmHg 85%
    02:00 -2°C° 0 mm 0 mps 699 mmHg 86%
    03:00 -2°C° 0 mm 0 mps 699 mmHg 86%
    04:00 -2°C° 0 mm 0 mps 699 mmHg 86%
    05:00 -2°C° 0 mm 0 mps 699 mmHg 86%
    06:00 -2°C° 0 mm 0 mps 699 mmHg 85%
    07:00 -2°C° 0 mm 0 mps 699 mmHg 85%
    08:00 -1°C° 0 mm 0 mps 699 mmHg 81%
    09:00 0°C° 0 mm 0 mps 699 mmHg 80%
    10:00 +1°C° 0 mm 0 mps 699 mmHg 78%
    11:00 +4°C° 0 mm 1 mps 699 mmHg 77%
    12:00 +4°C° 0 mm 1 mps 699 mmHg 76%
    13:00 +4°C° 0 mm 1 mps 698 mmHg 76%
    14:00 +5°C° 0 mm 1 mps 698 mmHg 76%
    15:00 +2°C° 0 mm 0 mps 698 mmHg 77%
    16:00 +1°C° 0 mm 0 mps 698 mmHg 79%
    17:00 -1°C° 0 mm 0 mps 697 mmHg 80%
    18:00 -1°C° 0 mm 0 mps 697 mmHg 79%
    19:00 -1°C° 0 mm 0 mps 697 mmHg 78%
    20:00 -1°C° 0 mm 0 mps 697 mmHg 77%
    21:00 -1°C° 0 mm 0 mps 697 mmHg 78%
    22:00 -1°C° 0 mm 0 mps 697 mmHg 79%
    23:00 -1°C° 0 mm 0 mps 697 mmHg 79%

    Tomorrow, 21 January, Monday

    Time Temperature Precipitation Wind Pressure Humidity
    00:00 -1°C° 0 mm 0 mps 697 mmHg 80%
    01:00 -2°C° 0 mm 0 mps 697 mmHg 80%
    02:00 -2°C° 0 mm 0 mps 697 mmHg 81%
    03:00 -2°C° 0 mm 0 mps 696 mmHg 80%
    04:00 -2°C° 0 mm 0 mps 696 mmHg 80%
    05:00 -2°C° 0 mm 0 mps 696 mmHg 80%
    06:00 -1°C° 0 mm 0 mps 696 mmHg 79%
    07:00 -1°C° 0 mm 0 mps 696 mmHg 78%
    08:00 -1°C° 0 mm 0 mps 696 mmHg 77%
    09:00 0°C° 0 mm 0 mps 696 mmHg 75%
    10:00 +2°C° 0 mm 0 mps 696 mmHg 74%
    11:00 +4°C° 0 mm 1 mps 697 mmHg 72%
    12:00 +4°C° 0 mm 1 mps 696 mmHg 74%
    13:00 +3°C° 0 mm 0 mps 696 mmHg 75%
    14:00 +3°C° 0 mm 0 mps 696 mmHg 77%
    15:00 +3°C° 0.1 mm 0 mps 696 mmHg 79%
    16:00 +2°C° 0.1 mm 0 mps 696 mmHg 82%
    17:00 +1°C° 0.1 mm 0 mps 695 mmHg 84%
    18:00 +1°C° 0.4 mm 0 mps 696 mmHg 86%
    19:00 +1°C° 0.4 mm 0 mps 696 mmHg 88%
    20:00 +1°C° 0.4 mm 0 mps 696 mmHg 90%
    21:00 +1°C° 0.2 mm 0 mps 696 mmHg 91%
    22:00 +1°C° 0.2 mm 0 mps 696 mmHg 91%
    23:00 +1°C° 0.2 mm 0 mps 696 mmHg 92%

    Day after tomorrow, 22 January, Tuesday

    Time Temperature Precipitation Wind Pressure Humidity
    00:00 0°C° 0 mm 0 mps 696 mmHg 92%
    01:00 0°C° 0 mm 0 mps 696 mmHg 92%
    02:00 -1°C° 0 mm 0 mps 696 mmHg 92%
    03:00 -1°C° 0 mm 0 mps 696 mmHg 91%
    04:00 0°C° 0 mm 1 mps 696 mmHg 91%
    05:00 0°C° 0 mm 1 mps 696 mmHg 91%
    06:00 -1°C° 0 mm 0 mps 697 mmHg 90%
    07:00 -1°C° 0 mm 0 mps 697 mmHg 89%
    08:00 -1°C° 0 mm 0 mps 697 mmHg 89%
    09:00 +1°C° 0 mm 0 mps 697 mmHg 88%
    10:00 +2°C° 0 mm 0 mps 697 mmHg 87%
    11:00 +3°C° 0 mm 0 mps 698 mmHg 87%
    12:00 +3°C° 0 mm 0 mps 697 mmHg 87%
    13:00 +4°C° 0 mm 0 mps 697 mmHg 87%
    14:00 +5°C° 0 mm 1 mps 696 mmHg 87%
    15:00 +4°C° 0 mm 1 mps 696 mmHg 89%
    16:00 +3°C° 0 mm 1 mps 696 mmHg 90%
    17:00 +2°C° 0 mm 1 mps 695 mmHg 92%
    18:00 +1°C° 0 mm 0 mps 695 mmHg 92%
    19:00 +1°C° 0 mm 0 mps 696 mmHg 92%
    20:00 +2°C° 0 mm 0 mps 696 mmHg 92%
    21:00 +2°C° 0 mm 0 mps 696 mmHg 93%
    22:00 +3°C° 0 mm 1 mps 696 mmHg 93%
    23:00 +3°C° 0 mm 1 mps 696 mmHg 94%

    23 January, Wednesday

    Time Temperature Precipitation Wind Pressure Humidity
    00:00 +3°C° 0 mm 1 mps 696 mmHg 95%
    01:00 +3°C° 0 mm 1 mps 695 mmHg 95%
    02:00 +3°C° 0 mm 1 mps 695 mmHg 96%
    03:00 +3°C° 0 mm 1 mps 695 mmHg 96%
    04:00 +3°C° 0 mm 1 mps 695 mmHg 96%
    05:00 +3°C° 0 mm 1 mps 695 mmHg 96%
    06:00 +3°C° 0 mm 1 mps 695 mmHg 96%
    07:00 +3°C° 0 mm 1 mps 695 mmHg 96%
    08:00 +3°C° 0 mm 1 mps 695 mmHg 96%
    09:00 +3°C° 0 mm 1 mps 695 mmHg 94%
    10:00 +4°C° 0 mm 1 mps 695 mmHg 93%
    11:00 +5°C° 0 mm 1 mps 695 mmHg 92%
    12:00 +5°C° 0 mm 1 mps 694 mmHg 91%
    13:00 +5°C° 0 mm 1 mps 694 mmHg 90%
    14:00 +6°C° 0 mm 1 mps 694 mmHg 89%
    15:00 +5°C° 0 mm 1 mps 694 mmHg 90%
    16:00 +4°C° 0 mm 1 mps 693 mmHg 91%
    17:00 +4°C° 0 mm 1 mps 693 mmHg 92%
    18:00 +3°C° 0 mm 1 mps 694 mmHg 92%
    19:00 +3°C° 0 mm 1 mps 694 mmHg 92%
    20:00 +2°C° 0 mm 1 mps 694 mmHg 93%
    21:00 +2°C° 0 mm 1 mps 694 mmHg 93%
    22:00 +2°C° 0 mm 1 mps 694 mmHg 93%
    23:00 +2°C° 0 mm 1 mps 694 mmHg 93%

    24 January, Thursday

    Time Temperature Precipitation Wind Pressure Humidity
    00:00 +2°C° 0 mm 1 mps 694 mmHg 93%
    01:00 +2°C° 0 mm 1 mps 693 mmHg 93%
    02:00 +2°C° 0 mm 1 mps 693 mmHg 93%
    03:00 +2°C° 0 mm 1 mps 693 mmHg 92%
    04:00 +2°C° 0 mm 1 mps 693 mmHg 92%
    05:00 +2°C° 0 mm 1 mps 692 mmHg 91%
    06:00 +2°C° 0 mm 1 mps 692 mmHg 90%
    07:00 +2°C° 0 mm 1 mps 692 mmHg 88%
    08:00 +3°C° 0 mm 1 mps 692 mmHg 87%
    09:00 +3°C° 0 mm 1 mps 692 mmHg 85%
    10:00 +4°C° 0 mm 1 mps 692 mmHg 82%
    11:00 +4°C° 0 mm 2 mps 692 mmHg 80%
    12:00 +6°C° 0 mm 1 mps 691 mmHg 79%
    13:00 +6°C° 0 mm 1 mps 690 mmHg 78%
    14:00 +6°C° 0 mm 1 mps 689 mmHg 77%
    15:00 +5°C° 0.1 mm 1 mps 689 mmHg 77%
    16:00 +5°C° 0.1 mm 1 mps 689 mmHg 77%
    17:00 +4°C° 0.1 mm 1 mps 689 mmHg 77%
    18:00 +4°C° 0.3 mm 1 mps 689 mmHg 78%
    19:00 +4°C° 0.3 mm 1 mps 689 mmHg 79%
    20:00 +4°C° 0.3 mm 1 mps 689 mmHg 80%
    21:00 +3°C° 0.2 mm 1 mps 689 mmHg 82%
    22:00 +3°C° 0.2 mm 1 mps 689 mmHg 84%
    23:00 +3°C° 0.2 mm 1 mps 688 mmHg 86%

    25 January, Friday

    Time Temperature Precipitation Wind Pressure Humidity
    00:00 +3°C° 0.2 mm 1 mps 688 mmHg 87%
    01:00 +3°C° 0.2 mm 1 mps 688 mmHg 88%
    02:00 +3°C° 0.2 mm 1 mps 689 mmHg 89%
    03:00 +3°C° 0.1 mm 1 mps 689 mmHg 90%
    04:00 +3°C° 0.1 mm 1 mps 689 mmHg 91%
    05:00 +3°C° 0.1 mm 1 mps 689 mmHg 92%
    06:00 +3°C° 0 mm 1 mps 690 mmHg 91%
    07:00 +3°C° 0 mm 1 mps 690 mmHg 91%
    08:00 +2°C° 0 mm 0 mps 690 mmHg 91%
    09:00 +4°C° 0 mm 1 mps 691 mmHg 90%
    10:00 +5°C° 0 mm 1 mps 691 mmHg 89%
    11:00 +6°C° 0 mm 1 mps 691 mmHg 88%
    12:00 +6°C° 0 mm 1 mps 690 mmHg 87%
    13:00 +7°C° 0 mm 1 mps 690 mmHg 86%
    14:00 +7°C° 0 mm 1 mps 690 mmHg 85%
    15:00 +6°C° 0.1 mm 1 mps 689 mmHg 86%
    16:00 +6°C° 0.1 mm 1 mps 689 mmHg 88%
    17:00 +5°C° 0.1 mm 1 mps 689 mmHg 89%
    18:00 +5°C° 0.1 mm 1 mps 689 mmHg 89%
    19:00 +6°C° 0.1 mm 1 mps 689 mmHg 90%
    20:00 +6°C° 0.1 mm 1 mps 689 mmHg 90%
    21:00 +5°C° 0.1 mm 1 mps 689 mmHg 91%
    22:00 +4°C° 0.1 mm 2 mps 689 mmHg 91%
    23:00 +4°C° 0.1 mm 2 mps 689 mmHg 92%
    Show more